[[{"header":{"parameterUnit":"m.s-1","parameterCategory":1,"la1":30.2991,"la2":30.254,"lo1":-89.0895,"lo2":-89.0444,"dy":0.0017,"dx":0.0017,"nx":28,"ny":28,"refTime":"2023-08-22T03:00:00:Z","depth":0,"parameterNumber":2,"parameterNumberName":"U-component_of_WINDS"},"data":[0,0,0,0,0,0,0,0,0,0,0,0,0,0,0,0,0,0,0,0,0,0,0,0,0,0,0,0,0,0,0,0,0,0,0,0,0,0,0,0,0,0,0,0,0,0,0,0,0,0,0,0,0,0,0,0,0,0,-1.2874,-1.2874,0,-1.2846,-1.2846,-1.2845,-1.2884,-1.2885,-1.2887,-1.2888,-1.2856,-1.2854,-1.2852,0,0,0,0,0,0,0,0,0,0,0,0,0,-1.2959,-1.2957,-1.2874,-1.2874,-1.2873,-1.2846,-1.2846,-1.2845,-1.2884,-1.2886,-1.2887,-1.2889,-1.2857,-1.2854,-1.2852,0,0,0,0,0,0,0,0,0,0,0,0,0,-1.2925,-1.2956,-1.2874,-1.2889,-1.289,-1.2846,-1.2846,-1.2845,-1.2883,-1.2886,-1.2888,-1.289,-1.2858,-1.2854,-1.2851,-1.279,0,0,-1.2841,-1.284,0,0,0,0,0,0,0,0,-1.2927,-1.2922,-1.2887,-1.2888,-1.2889,-1.2871,-1.2864,-1.2826,-1.2883,-1.2886,-1.2888,-1.2891,-1.2859,-1.2856,-1.2846,-1.2788,-1.2787,-1.2841,-1.2839,-1.2838,-1.2837,0,0,0,0,0,0,0,-1.2929,-1.2924,-1.2863,-1.2887,-1.2888,-1.2897,-1.2895,-1.2857,-1.2861,-1.2886,-1.2889,-1.2885,-1.286,-1.2849,-1.2845,-1.2786,-1.2841,-1.2838,-1.2836,-1.2835,-1.2678,-1.2676,0,0,0,0,0,0,-1.293,-1.2925,-1.2864,-1.2862,-1.2914,-1.2894,-1.2891,-1.2875,-1.2862,-1.2862,-1.2883,-1.2887,-1.2853,-1.2849,-1.2844,-1.2773,-1.2838,-1.2835,-1.2833,-1.2681,-1.2678,-1.2675,0,0,0,0,0,0,-1.2932,-1.2924,-1.2865,-1.2894,-1.2888,-1.289,-1.2871,-1.2873,-1.2862,-1.286,-1.286,-1.2871,-1.2855,-1.2849,-1.2804,-1.2772,-1.2833,-1.283,-1.2683,-1.268,-1.2677,-1.2627,0,0,0,0,0,0,-1.2934,-1.2925,-1.2902,-1.2894,-1.2886,-1.2825,-1.2869,-1.2871,-1.2857,-1.2861,-1.2849,-1.2849,-1.2856,-1.2808,-1.28,-1.2769,-1.2828,-1.2686,-1.2682,-1.2678,-1.2632,-1.2623,-1.2615,0,0,0,0,0,-1.2937,-1.2888,-1.29,-1.2893,-1.2857,-1.2823,-1.2818,-1.2829,-1.2854,-1.2831,-1.283,-1.2849,-1.2777,-1.2803,-1.2795,-1.2761,-1.2688,-1.2683,-1.2678,-1.2636,-1.2624,-1.2615,0,0,0,0,0,0,-1.289,-1.2887,-1.2901,-1.2848,-1.2835,-1.283,-1.28,-1.2817,-1.2796,-1.2801,-1.2814,-1.2811,-1.2763,-1.2758,-1.2787,-1.2702,-1.2737,-1.273,-1.2707,-1.2697,-1.2688,-1.269,-1.2825,0,0,0,0,0,-1.2874,-1.2847,-1.2846,-1.2799,-1.2792,-1.2797,-1.2783,-1.2792,-1.278,-1.2774,-1.277,-1.2756,-1.2731,-1.2713,-1.269,-1.2632,-1.263,-1.2605,-1.2596,-1.2589,-1.2583,-1.2553,-1.2542,-1.2659,-1.2659,-1.2659,0,0,-1.2839,-1.2834,-1.2816,-1.2789,-1.2781,-1.2753,-1.2793,-1.276,-1.274,-1.2769,-1.2727,-1.2723,-1.2709,-1.2657,-1.2634,-1.2651,-1.2551,-1.2583,-1.2577,-1.2575,-1.2547,-1.2536,-1.2526,-1.2656,-1.2656,-1.2657,0,0,-1.2762,-1.2756,-1.2717,-1.2708,-1.2696,-1.27,-1.2691,-1.2683,-1.2682,-1.264,-1.2662,-1.2637,-1.2593,-1.2582,-1.2571,-1.2492,-1.2509,-1.2484,-1.244,-1.241,-1.2401,-1.2393,-1.2366,-1.2356,-1.2478,-1.2478,-1.2477,0,-1.272,-1.268,-1.2694,-1.2661,-1.2649,-1.2676,-1.2637,-1.2628,-1.2608,-1.2598,-1.2618,-1.2564,-1.2556,-1.2503,-1.2485,-1.2474,-1.2464,-1.2485,-1.2402,-1.2394,-1.2386,-1.236,-1.235,-1.2475,-1.2475,-1.2475,-1.2475,0,-1.2629,-1.2601,-1.2571,-1.2553,-1.2537,-1.2501,-1.251,-1.2492,-1.2503,-1.2505,-1.2463,-1.2455,-1.243,-1.2419,-1.2428,-1.2367,-1.2379,-1.24,-1.2435,-1.2372,-1.2348,-1.2338,-1.247,-1.2471,-1.2472,-1.2473,0,0,-1.252,-1.2513,-1.2501,-1.2494,-1.2484,-1.2462,-1.2427,-1.2405,-1.239,-1.2376,-1.2347,-1.231,-1.233,-1.2317,-1.2327,-1.2301,-1.224,-1.2326,-1.2326,-1.231,-1.2174,-1.2158,-1.2146,-1.2252,-1.225,-1.2249,-1.2175,0,-1.2443,-1.2385,-1.2398,-1.234,-1.2315,-1.2342,-1.2312,-1.2302,-1.2303,-1.2281,-1.2282,-1.2256,-1.2284,-1.2277,-1.2253,-1.2253,-1.2213,-1.2258,-1.2226,-1.2224,-1.2228,-1.2133,-1.2116,-1.2046,-1.2165,-1.2164,-1.2163,0,-1.2346,-1.233,-1.227,-1.2266,-1.2256,-1.2229,-1.2211,-1.2189,-1.2179,-1.2182,-1.2169,-1.2184,-1.2149,-1.2185,-1.2139,-1.2169,-1.2157,-1.2155,-1.2153,-1.215,-1.2189,-1.2128,-1.2024,-1.2014,-1.2148,-1.2149,-1.215,0,-1.2273,-1.2236,-1.2197,-1.219,-1.2183,-1.2164,-1.216,-1.2152,-1.2139,-1.2123,-1.2114,-1.2094,-1.2082,-1.2066,-1.2075,-1.21,-1.2027,-1.2063,-1.2028,-1.2028,-1.2011,-1.2012,-1.1904,-1.2003,-1.2003,-1.2003,-1.2004,0,-1.2186,-1.2148,-1.2164,-1.2139,-1.2098,-1.2114,-1.2073,-1.2072,-1.2065,-1.2041,-1.2062,-1.2039,-1.2052,-1.203,-1.2036,-1.1997,-1.1992,-1.1993,-1.1995,-1.1991,-1.1991,-1.1983,-1.1988,-1.2001,-1.2001,-1.2002,-1.2002,0,-1.2096,-1.2106,-1.2064,-1.2063,-1.2061,-1.2031,-1.203,-1.2007,-1.2011,-1.198,-1.1973,-1.1979,-1.1954,-1.1962,-1.1934,-1.1939,-1.1889,-1.1897,-1.1893,-1.1895,-1.186,-1.1863,-1.1743,-1.1728,-1.1836,-1.1835,-1.1834,0,-1.204,-1.2012,-1.2009,-1.1995,-1.199,-1.1967,-1.1954,-1.1969,-1.1954,-1.1942,-1.192,-1.1898,-1.188,-1.1839,-1.184,-1.1819,-1.1827,-1.1787,-1.1824,-1.1822,-1.1827,-1.1829,-1.1827,-1.1779,-1.1778,-1.1777,-1.1776,0,-1.1939,-1.1946,-1.1927,-1.1911,-1.1895,-1.1882,-1.1871,-1.1858,-1.1872,-1.1855,-1.1831,-1.1817,-1.1791,-1.1768,-1.175,-1.1745,-1.1763,-1.1765,-1.1755,-1.1751,-1.1749,-1.175,-1.1873,-1.1767,-1.1768,-1.1768,-1.1769,-1.1769,-1.1865,-1.1842,-1.1837,-1.1816,-1.181,-1.18,-1.1779,-1.1781,-1.1761,-1.1742,-1.1751,-1.1723,-1.1715,-1.1693,-1.1687,-1.1665,-1.168,-1.1667,-1.1663,-1.166,-1.1656,-1.1753,-1.1661,-1.1661,-1.1662,-1.1662,-1.1662,0,-1.1766,-1.1765,-1.1745,-1.173,-1.1714,-1.1734,-1.1724,-1.1708,-1.1684,-1.1675,-1.1659,-1.1631,-1.161,-1.161,-1.1591,-1.1573,-1.1581,-1.1567,-1.1569,-1.1568,-1.1642,-1.1653,-1.1562,-1.1562,-1.1562,-1.1562,-1.1562,-1.1562,-1.1713,-1.1676,-1.1682,-1.1642,-1.1641,-1.1615,-1.1607,-1.1598,-1.1592,-1.1561,-1.1544,-1.1545,-1.1541,-1.1521,-1.1503,-1.1503,-1.1495,-1.1479,-1.1482,-1.1552,-1.1562,-1.1572,-1.1581,-1.1477,-1.1477,-1.141,-1.1409,-1.1408]},{"header":{"parameterUnit":"m.s-1","parameterCategory":1,"la1":30.2991,"la2":30.254,"lo1":-89.0895,"lo2":-89.0444,"dy":0.0017,"dx":0.0017,"nx":28,"ny":28,"refTime":"2023-08-22T03:00:00:Z","depth":0,"parameterNumber":3,"parameterNumberName":"V-component_of_WINDS"},"data":[0,0,0,0,0,0,0,0,0,0,0,0,0,0,0,0,0,0,0,0,0,0,0,0,0,0,0,0,0,0,0,0,0,0,0,0,0,0,0,0,0,0,0,0,0,0,0,0,0,0,0,0,0,0,0,0,0,0,-1.9948,-1.9948,0,-1.9952,-1.9952,-1.9952,-1.9915,-1.9914,-1.9913,-1.9912,-1.9915,-1.9916,-1.9917,0,0,0,0,0,0,0,0,0,0,0,0,0,-1.9911,-1.9912,-1.9948,-1.9948,-1.9948,-1.9952,-1.9952,-1.9952,-1.9915,-1.9914,-1.9913,-1.9912,-1.9915,-1.9916,-1.9917,0,0,0,0,0,0,0,0,0,0,0,0,0,-1.9922,-1.9912,-1.9948,-1.9931,-1.9929,-1.9952,-1.9952,-1.9952,-1.9916,-1.9914,-1.9913,-1.9911,-1.9914,-1.9916,-1.9917,-1.9956,0,0,-1.9922,-1.9923,0,0,0,0,0,0,0,0,-1.9921,-1.9923,-1.9933,-1.9932,-1.993,-1.9932,-1.9939,-1.9953,-1.9916,-1.9921,-1.9912,-1.9911,-1.9922,-1.9923,-1.9926,-1.9957,-1.9957,-1.9922,-1.9923,-1.9924,-1.9924,0,0,0,0,0,0,0,-1.9921,-1.9923,-1.9949,-1.9933,-1.9932,-1.9923,-1.9923,-1.9942,-1.993,-1.992,-1.9918,-1.9919,-1.9921,-1.9925,-1.9926,-1.9957,-1.9922,-1.9923,-1.9924,-1.9925,-2.0022,-2.0024,0,0,0,0,0,0,-1.9922,-1.9923,-1.9949,-1.995,-1.9922,-1.9925,-1.9925,-1.9933,-1.9929,-1.9927,-1.992,-1.9917,-1.9923,-1.9924,-1.9926,-1.9974,-1.9924,-1.9925,-1.9926,-2.0021,-2.0023,-2.0024,0,0,0,0,0,0,-1.9922,-1.9925,-1.9949,-1.9935,-1.9938,-1.9927,-1.9936,-1.9933,-1.9938,-1.9929,-1.9927,-1.9927,-1.9922,-1.9924,-1.995,-1.9974,-1.9926,-1.9927,-2.0019,-2.0021,-2.0023,-2.007,0,0,0,0,0,0,-1.9921,-1.9925,-1.994,-1.9936,-1.9939,-1.9973,-1.9938,-1.9935,-1.9941,-1.9937,-1.9935,-1.9933,-1.9921,-1.9948,-1.9951,-1.9975,-1.9928,-2.0016,-2.002,-2.0023,-2.0066,-2.0073,-2.008,0,0,0,0,0,-1.992,-1.9952,-1.9941,-1.9944,-1.9957,-1.9974,-1.9976,-1.9962,-1.9943,-1.9958,-1.9952,-1.9933,-1.997,-1.9951,-1.9955,-1.9979,-2.0015,-2.0019,-2.0022,-2.0063,-2.0072,-2.008,0,0,0,0,0,0,-1.9957,-1.9951,-1.9938,-1.997,-1.9973,-1.9968,-1.9987,-1.9971,-1.998,-1.9976,-1.9957,-1.9957,-1.9987,-1.9985,-1.9964,-2.0018,-1.9989,-1.9994,-2.0019,-2.0027,-2.0034,-2.0035,-1.9929,0,0,0,0,0,-1.997,-1.9985,-1.9978,-2.0007,-2.0009,-1.9998,-2.0005,-1.9994,-1.9996,-1.9997,-1.9993,-1.9996,-2.0009,-2.0017,-2.0028,-2.0065,-2.0065,-2.0083,-2.009,-2.0096,-2.0101,-2.0123,-2.0132,-2.0037,-2.0037,-2.0037,0,0,-1.9995,-1.9993,-2.0003,-2.0014,-2.0015,-2.0032,-1.9999,-2.0017,-2.003,-1.9999,-2.0025,-2.0022,-2.0024,-2.0057,-2.007,-2.0056,-2.0127,-2.0101,-2.0105,-2.0107,-2.0128,-2.0137,-2.0145,-2.0039,-2.0039,-2.0039,0,0,-2.005,-2.0049,-2.0074,-2.0077,-2.0079,-2.0072,-2.0078,-2.0075,-2.0073,-2.0098,-2.0077,-2.0091,-2.0112,-2.0115,-2.012,-2.0178,-2.0161,-2.0181,-2.0219,-2.024,-2.0248,-2.0254,-2.0278,-2.0286,-2.0186,-2.0186,-2.0186,0,-2.0081,-2.0105,-2.0089,-2.011,-2.0116,-2.009,-2.0117,-2.0119,-2.0125,-2.013,-2.0113,-2.0142,-2.0141,-2.0175,-2.0189,-2.0193,-2.0201,-2.0183,-2.0248,-2.0254,-2.026,-2.0283,-2.0291,-2.0189,-2.0188,-2.0188,-2.0188,0,-2.0145,-2.0162,-2.0182,-2.019,-2.0198,-2.0221,-2.021,-2.022,-2.0208,-2.0203,-2.023,-2.0228,-2.0239,-2.0246,-2.0234,-2.0279,-2.027,-2.0251,-2.0222,-2.0272,-2.0293,-2.0301,-2.0193,-2.0192,-2.0191,-2.019,0,0,-2.0224,-2.0224,-2.0232,-2.0236,-2.0238,-2.0251,-2.0273,-2.0285,-2.0296,-2.03,-2.032,-2.0339,-2.0322,-2.0327,-2.0316,-2.0334,-2.0384,-2.0313,-2.0313,-2.0329,-2.0437,-2.0454,-2.0463,-2.0372,-2.0374,-2.0375,-2.0438,0,-2.028,-2.032,-2.0307,-2.0347,-2.0364,-2.034,-2.036,-2.0364,-2.036,-2.0374,-2.0368,-2.0384,-2.0358,-2.0362,-2.0379,-2.0374,-2.0406,-2.0369,-2.0392,-2.0393,-2.0395,-2.0474,-2.0491,-2.055,-2.0445,-2.0446,-2.0447,0,-2.0351,-2.0361,-2.0403,-2.0404,-2.0411,-2.0429,-2.044,-2.0453,-2.0457,-2.0453,-2.0459,-2.0444,-2.0467,-2.0437,-2.047,-2.0445,-2.0453,-2.0453,-2.0455,-2.0458,-2.0425,-2.0482,-2.0568,-2.0579,-2.0459,-2.0458,-2.0458,0,-2.0409,-2.0432,-2.0461,-2.0465,-2.0466,-2.048,-2.0481,-2.0483,-2.0492,-2.0501,-2.0507,-2.0518,-2.0525,-2.0535,-2.0523,-2.0502,-2.0559,-2.0527,-2.0557,-2.0558,-2.0572,-2.0572,-2.0664,-2.0573,-2.0573,-2.0573,-2.0573,0,-2.0474,-2.0502,-2.0487,-2.0506,-2.0537,-2.0521,-2.0552,-2.055,-2.0553,-2.0571,-2.0549,-2.0567,-2.055,-2.0566,-2.0557,-2.0587,-2.0589,-2.0587,-2.0585,-2.0591,-2.0592,-2.0598,-2.0595,-2.0575,-2.0575,-2.0574,-2.0574,0,-2.0545,-2.0536,-2.0567,-2.0565,-2.0566,-2.0589,-2.0588,-2.0605,-2.06,-2.0623,-2.0627,-2.0619,-2.0637,-2.0626,-2.0643,-2.0638,-2.0678,-2.0668,-2.0677,-2.0676,-2.0708,-2.0707,-2.081,-2.0824,-2.0721,-2.0722,-2.0723,0,-2.0589,-2.061,-2.0611,-2.0623,-2.0625,-2.0643,-2.0652,-2.0638,-2.0648,-2.0656,-2.0673,-2.0689,-2.0701,-2.0731,-2.0727,-2.0741,-2.0733,-2.0768,-2.0735,-2.0741,-2.0737,-2.0738,-2.0741,-2.0776,-2.0777,-2.0778,-2.0779,0,-2.0668,-2.0663,-2.0678,-2.0692,-2.0704,-2.0714,-2.0722,-2.0732,-2.0718,-2.0731,-2.0749,-2.0759,-2.0778,-2.0796,-2.0808,-2.0809,-2.0793,-2.0789,-2.0798,-2.0805,-2.0811,-2.0811,-2.0699,-2.0787,-2.0786,-2.0786,-2.0785,-2.0785,-2.0729,-2.0748,-2.0753,-2.077,-2.0775,-2.0784,-2.0801,-2.0798,-2.0813,-2.0829,-2.0819,-2.0842,-2.0846,-2.0861,-2.0865,-2.0883,-2.0869,-2.088,-2.0883,-2.0887,-2.0893,-2.0806,-2.0884,-2.0884,-2.0884,-2.0884,-2.0883,0,-2.081,-2.0813,-2.0829,-2.0842,-2.0856,-2.0839,-2.0847,-2.0861,-2.0881,-2.0887,-2.0901,-2.0923,-2.094,-2.0937,-2.0953,-2.0968,-2.0961,-2.0973,-2.0973,-2.0974,-2.0903,-2.0896,-2.0979,-2.0979,-2.0979,-2.0979,-2.0979,-2.0979,-2.0854,-2.0887,-2.0882,-2.0917,-2.0919,-2.0942,-2.0949,-2.0957,-2.0962,-2.0989,-2.1003,-2.1001,-2.1004,-2.102,-2.1035,-2.1034,-2.1042,-2.1058,-2.1054,-2.0988,-2.0979,-2.097,-2.0963,-2.1059,-2.1059,-2.1124,-2.1124,-2.1125]}]]